Volver al catálogo

DELTA 1 DEB

ActivoUNKNOWN
NORAD 18600·DEBRIS·🇺🇸 United States

Lanzado Jul 29, 1976 desde Vandenberg Space Force Base

Loading…

Próximos Pases (próximas 24 horas)

TLE

ActualizadoSource: Space-Track

Época: Sep 13, 2026, 21:37 UTC

1 18600U 76077FF  26256.90102022  .00000361  00000-0  95069-2 0  9990
2 18600 102.0452 315.8335 0780031 293.1061 116.1602 10.91671503477884

Sigue DELTA 1 DEB en tiempo real con AllMySat

Download on the App Store